Hourly Data Report for April 13, 2017

KUGAARUK CLIMATE
NUNAVUT

68°32'15.060" N
89°47'47.020" W
15.80 m
2303094
71407
NBB

Download Data

Hourly Data (April 2017)
Hourly Data Report for April 13, 2017
TIME
LST
Temp Definition
°C
Dew Point Definition
°C
Rel Hum Definition
%
Precip. Amount Definition
mm

Wind Dir Definition
10's deg

Wind Spd Definition
km/h
Visibility Definition
km
Stn Press Definition
kPa
Hmdx Definition


Wind Chill Definition


Weather Definition


00:00 -28.2 -31.5 73 0.0 21 19   101.94   -41 LegendNANA
01:00 -28.9 -32.4 72 0.0 24 13   101.94   -39 LegendNANA
02:00 -29.3 -32.8 72 0.0 24 17   101.95   -41 LegendNANA
03:00 -29.5 -33.0 71 0.0 24 20   101.96   -42 LegendNANA
04:00 -29.6 -33.2 71 0.0 23 22   101.97   -43 LegendNANA
05:00 -29.4 -33.1 70 0.0 26 26   101.97   -44 LegendNANA
06:00 -29.0 -32.7 70 0.0 25 21   101.96   -42 LegendNANA
07:00 -28.3 -32.2 69 0.0 27 23   101.95   -42 LegendNANA
08:00 -27.7 -31.8 68 0.0 28 27   101.96   -42 LegendNANA
09:00 -27.3 -31.4 68 0.0 27 24   101.93   -41 LegendNANA
10:00 -26.6 -30.8 67 0.0 27 23   101.96   -40 LegendNANA
11:00 -26.3 -30.5 68 0.0 28 33   101.94   -41 LegendNANA
12:00 -25.6 -29.9 67 0.0 28 30   101.98   -40 LegendNANA
13:00 -25.6 -30.2 65 0.0 28 27   102.00   -39 LegendNANA
14:00 -25.4 -30.2 64 0.0 28 25   102.00   -39 LegendNANA
15:00 -25.4 -30.4 63 0.0 28 25   101.99   -39 LegendNANA
16:00 -25.3 -29.9 65 0.0 27 26   102.01   -39 LegendNANA
17:00 -25.3 -29.3 69 0.0 27 24   102.03   -38 LegendNANA
18:00 -25.3 -28.5 74 0.0 26 14   102.06   -35 LegendNANA
19:00 -25.0 -28.2 75 0.0 24 21   102.05   -37 LegendNANA
20:00 -25.1 -28.2 75 0.0 24 24   102.05   -38 LegendNANA
21:00 -24.3 -27.4 75 0.0 23 25   102.07   -37 LegendNANA
22:00 -23.9 -26.9 76 0.0 25 21   102.07   -36 LegendNANA
23:00 -23.4 -26.3 77 0.0 25 21   102.10   -35 LegendNANA

Notes on Data Quality.

Legend

  • E = Estimated
  • M = Missing
  • NA = Not Available*
  • [empty] = Indicates an unobserved value
Date modified: